Weather History for KGDV - November, 2012

Change the Weather History Date:

Thursday, November 29, 2012

  Actual Average (KMLS) Record (KMLS)
Temperature  
Mean Temperature 24 °F 25 °F  
Max Temperature 30 °F 36 °F 60 °F (1951)
Min Temperature 17 °F 15 °F -21 °F (1985)
Degree Days  
Heating Degree Days 42 40  
Month to date heating degree days 946  
Since 1 July heating degree days 1757  
Cooling Degree Days 0 0  
Month to date cooling degree days 0  
Year to date cooling degree days 730  
Moisture  
Dew Point 19 °F    
Average Humidity 84    
Maximum Humidity 93    
Minimum Humidity 69    
Precipitation  
Precipitation 0.00 in 0.01 in 0.17 in (1946)
Month to date precipitation 0.38  
Year to date precipitation 12.14  
Sea Level Pressure  
Sea Level Pressure 29.89 in    
Wind  
Wind Speed 8 mph (NE)    
Max Wind Speed 15 mph    
Max Gust Speed -    
Visibility 9 miles    
Events      
T = Trace of Precipitation, MM = Missing Value Source: NWS Daily Summary

Daily Weather History Graph

Daily Weather History Graph

Search for Another Location

Airport or City:

Trip Planner

Search our weather history database for the weather conditions in past years. The results will help you decide how hot, cold, wet, or windy it might be!

Date:

Astronomy

Nov. 29, 2012 Rise Set
Actual Time 7:22 AM MST 4:12 PM MST
Civil Twilight 6:48 AM MST 4:46 PM MST
Nautical Twilight 6:10 AM MST 5:25 PM MST
Astronomical Twilight 5:33 AM MST 6:01 PM MST
Moon 5:16 PM MST (11/29) 8:12 AM MST (11/29)
Length of Visible Light 9h 58m
Length of Day
8h 49m
Full, 99% of the Moon is Illuminated
Nov 29
Full
Dec 6
Last Quarter
Dec 13
New
Dec 19
First Quarter
Dec 28
Full

Hourly Weather History & Observations

Time (MST) Temp. Windchill Dew Point Humidity Pressure Visibility Wind Dir Wind Speed Gust Speed Precip Events Conditions
12:15 AM 21.2 °F 10.9 °F 17.6 °F 86% 29.91 in 10.0 mi NE 9.2 mph - N/A   Clear
12:35 AM 21.2 °F 11.7 °F 17.6 °F 86% 29.90 in 10.0 mi NE 8.1 mph - N/A   Clear
12:55 AM 21.2 °F 11.7 °F 17.6 °F 86% 29.90 in 10.0 mi NE 8.1 mph - N/A   Clear
1:15 AM 21.2 °F 10.9 °F 17.6 °F 86% 29.88 in 10.0 mi NE 9.2 mph - N/A   Clear
1:35 AM 21.2 °F 10.1 °F 17.6 °F 86% 29.88 in 10.0 mi NE 10.4 mph - N/A   Clear
1:55 AM 21.2 °F 11.7 °F 17.6 °F 86% 29.88 in 10.0 mi NE 8.1 mph - N/A   Clear
2:15 AM 21.2 °F 10.9 °F 17.6 °F 86% 29.88 in 10.0 mi NE 9.2 mph - N/A   Clear
2:36 AM 21.2 °F 10.1 °F 17.6 °F 86% 29.88 in 10.0 mi NE 10.4 mph - N/A   Clear
2:55 AM 21.2 °F 10.1 °F 17.6 °F 86% 29.88 in 10.0 mi NE 10.4 mph - N/A   Clear
3:15 AM 21.2 °F 10.1 °F 19.4 °F 93% 29.87 in 10.0 mi NE 10.4 mph - N/A   Clear
3:35 AM 21.2 °F 10.9 °F 19.4 °F 93% 29.86 in 10.0 mi ENE 9.2 mph - N/A   Clear
3:55 AM 21.2 °F 10.1 °F 19.4 °F 93% 29.86 in 10.0 mi NE 10.4 mph - N/A   Clear
4:15 AM 21.2 °F 8.3 °F 19.4 °F 93% 29.86 in 10.0 mi NE 13.8 mph - N/A   Clear
5:15 AM 21.2 °F 8.9 °F 19.4 °F 93% 29.85 in 10.0 mi NE 12.7 mph - N/A   Clear
5:35 AM 21.2 °F 8.3 °F 19.4 °F 93% 29.84 in 10.0 mi ENE 13.8 mph - N/A   Clear
5:55 AM 23.0 °F 11.1 °F 19.4 °F 86% 29.85 in 10.0 mi NE 12.7 mph - N/A   Clear
6:15 AM 23.0 °F 11.1 °F 19.4 °F 86% 29.85 in 10.0 mi NE 12.7 mph - N/A   Clear
6:35 AM 23.0 °F 11.7 °F 19.4 °F 86% 29.86 in 9.0 mi NE 11.5 mph - N/A   Clear
6:55 AM 23.0 °F 10.6 °F 19.4 °F 86% 29.85 in 8.0 mi ENE 13.8 mph - N/A   Clear
7:15 AM 23.0 °F 10.6 °F 19.4 °F 86% 29.85 in 8.0 mi NE 13.8 mph - N/A   Scattered Clouds
7:35 AM 23.0 °F 11.1 °F 21.2 °F 93% 29.86 in 8.0 mi NE 12.7 mph - N/A   Mostly Cloudy
8:15 AM 23.0 °F 10.6 °F 19.4 °F 86% 29.87 in 7.0 mi NE 13.8 mph - N/A   Mostly Cloudy
8:35 AM 23.0 °F 10.1 °F 19.4 °F 86% 29.87 in 7.0 mi NE 15.0 mph - N/A   Scattered Clouds
9:15 AM 24.8 °F 14.6 °F 19.4 °F 80% 29.87 in 8.0 mi NE 10.4 mph - N/A   Clear
9:35 AM 24.8 °F 14.6 °F 21.2 °F 86% 29.88 in 8.0 mi NE 10.4 mph - N/A   Clear
9:55 AM 24.8 °F 15.3 °F 21.2 °F 86% 29.88 in 9.0 mi NE 9.2 mph - N/A   Partly Cloudy
10:15 AM 24.8 °F 15.3 °F 21.2 °F 86% 29.89 in 10.0 mi NE 9.2 mph - N/A   Clear
10:55 AM 26.6 °F 16.8 °F 21.2 °F 80% 29.88 in 10.0 mi NE 10.4 mph - N/A   Clear
11:15 AM 26.6 °F 17.5 °F 23.0 °F 86% 29.88 in 10.0 mi NE 9.2 mph - N/A   Clear
11:35 AM 26.6 °F 18.2 °F 21.2 °F 80% 29.87 in 10.0 mi NE 8.1 mph - N/A   Partly Cloudy
11:55 AM 26.6 °F 18.2 °F 21.2 °F 80% 29.87 in 10.0 mi NE 8.1 mph - N/A   Partly Cloudy
12:15 PM 28.4 °F 21.2 °F 23.0 °F 80% 29.88 in 10.0 mi NE 6.9 mph - N/A   Clear
12:35 PM 28.4 °F 20.4 °F 23.0 °F 80% 29.87 in 10.0 mi NNE 8.1 mph - N/A   Clear
1:15 PM 30.2 °F 25.4 °F 21.2 °F 69% 29.88 in 10.0 mi NE 4.6 mph - N/A   Clear
1:35 PM 30.2 °F 24.3 °F 21.2 °F 69% 29.89 in 10.0 mi NNE 5.8 mph - N/A   Mostly Cloudy
1:55 PM 30.2 °F 24.3 °F 21.2 °F 69% 29.89 in 10.0 mi NE 5.8 mph - N/A   Overcast
2:15 PM 30.2 °F 25.4 °F 23.0 °F 75% 29.89 in 10.0 mi NNE 4.6 mph - N/A   Overcast
2:55 PM 30.2 °F 25.4 °F 21.2 °F 69% 29.90 in 10.0 mi ENE 4.6 mph - N/A   Overcast
3:35 PM 28.4 °F 22.2 °F 21.2 °F 74% 29.90 in 10.0 mi ENE 5.8 mph - N/A   Overcast
3:55 PM 28.4 °F 23.3 °F 21.2 °F 74% 29.91 in 10.0 mi NE 4.6 mph - N/A   Overcast
4:15 PM 28.4 °F - 21.2 °F 74% 29.91 in 10.0 mi Calm Calm - N/A   Overcast
4:35 PM 26.6 °F 20.0 °F 23.0 °F 86% 29.93 in 10.0 mi North 5.8 mph - N/A   Scattered Clouds
4:55 PM 26.6 °F 21.2 °F 19.4 °F 74% 29.92 in 10.0 mi NNE 4.6 mph - N/A   Clear
5:15 PM 24.8 °F 19.1 °F 21.2 °F 86% 29.93 in 10.0 mi ENE 4.6 mph - N/A   Clear
5:35 PM 24.8 °F 19.1 °F 19.4 °F 80% 29.93 in 10.0 mi ENE 4.6 mph - N/A   Clear
5:55 PM 23.0 °F 15.8 °F 19.4 °F 86% 29.93 in 10.0 mi ESE 5.8 mph - N/A   Clear
6:15 PM 21.2 °F 13.6 °F 17.6 °F 86% 29.92 in 9.0 mi NE 5.8 mph - N/A   Clear
6:35 PM 21.2 °F - 17.6 °F 86% 29.92 in 9.0 mi Calm Calm - N/A   Clear
6:55 PM 21.2 °F 13.6 °F 19.4 °F 93% 29.91 in 10.0 mi ENE 5.8 mph - N/A   Clear
7:15 PM 21.2 °F 13.6 °F 19.4 °F 93% 29.91 in 8.0 mi NE 5.8 mph - N/A   Clear
7:35 PM 21.2 °F - 17.6 °F 86% 29.92 in 8.0 mi Calm Calm - N/A   Clear
7:55 PM 21.2 °F 16.4 °F 19.4 °F 93% 29.91 in 9.0 mi East 3.5 mph - N/A   Clear
8:15 PM 19.4 °F - 17.6 °F 93% 29.91 in 8.0 mi Calm Calm - N/A   Clear
8:55 PM 17.6 °F - 15.8 °F 93% 29.91 in 8.0 mi Calm Calm - N/A   Partly Cloudy
9:15 PM 19.4 °F - 15.8 °F 86% 29.91 in 8.0 mi Calm Calm - N/A   Partly Cloudy
9:35 PM 19.4 °F - 14.0 °F 80% 29.91 in 8.0 mi Calm Calm - N/A   Clear
9:55 PM 19.4 °F - 15.8 °F 86% 29.90 in 9.0 mi Calm Calm - N/A   Clear
10:15 PM 19.4 °F - 12.2 °F 74% 29.91 in 8.0 mi Calm Calm - N/A   Clear
10:35 PM 19.4 °F - 12.2 °F 74% 29.90 in 8.0 mi Calm Calm - N/A   Clear
10:55 PM 19.4 °F - 15.8 °F 86% 29.91 in 10.0 mi Calm Calm - N/A   Clear
11:15 PM 19.4 °F 12.8 °F 15.8 °F 86% 29.91 in 10.0 mi ENE 4.6 mph - N/A   Clear
11:55 PM 19.4 °F 14.3 °F 15.8 °F 86% 29.90 in 7.0 mi ENE 3.5 mph - N/A   Clear